Highgate, VT

10:16 PM EDT on April 24, 2017 (GMT -0400)
Franklin County State

Weather History for KFSO - November, 2012

Change the Weather History Date:

Monday, November 26, 2012

  Actual Average (KPBG) Record (KPBG)
Temperature  
Mean Temperature 22 °F -  
Max Temperature 29 °F 38 °F 60 °F (1979)
Min Temperature 14 °F 25 °F 6 °F (1993)
Degree Days  
Heating Degree Days 44    
Moisture  
Dew Point 15 °F    
Average Humidity 69    
Maximum Humidity 91    
Minimum Humidity 48    
Precipitation  
Precipitation 0.00 in - - ()
Sea Level Pressure  
Sea Level Pressure 30.02 in    
Wind  
Wind Speed 2 mph (WNW)    
Max Wind Speed 8 mph    
Max Gust Speed 16 mph    
Visibility 8 miles    
Events Snow    
Averages and records for this station are not official NWS values.
T = Trace of Precipitation, MM = Missing Value Source: NWS Daily Summary

Daily Weather History Graph

Daily Weather History Graph

Search for Another Location

Airport or City:

Trip Planner

Search our weather history database for the weather conditions in past years. The results will help you decide how hot, cold, wet, or windy it might be!

Date:

Astronomy

Nov. 26, 2012 Rise Set
Actual Time 7:04 AM EST 4:14 PM EST
Civil Twilight 6:32 AM EST 4:47 PM EST
Nautical Twilight 5:55 AM EST 5:23 PM EST
Astronomical Twilight 5:20 AM EST 5:58 PM EST
Moon 3:07 PM EST (11/26) 5:09 AM EST (11/26)
Length of Visible Light 10h 15m
Length of Day
9h 09m
Waxing Gibbous, 97% of the Moon is Illuminated
Nov 26
Waxing Gibbous
Nov 28
Full
Dec 6
Last Quarter
Dec 13
New
Dec 20
First Quarter

Hourly Weather History & Observations

Time (EST) Temp. Windchill Dew Point Humidity Pressure Visibility Wind Dir Wind Speed Gust Speed Precip Events Conditions
12:15 AM 27.1 °F 23.2 °F 14.9 °F 60% 29.82 in 10.0 mi WNW 3.5 mph - N/A   Overcast
12:35 AM 27.1 °F 23.2 °F 14.9 °F 60% 29.81 in 10.0 mi NW 3.5 mph - N/A   Overcast
12:55 AM 27.1 °F - 14.5 °F 59% 29.81 in 10.0 mi Calm Calm - N/A   Overcast
1:15 AM 27.1 °F - 14.4 °F 59% 29.81 in 10.0 mi Calm Calm - N/A   Overcast
1:35 AM 27.1 °F - 14.5 °F 59% 29.81 in 10.0 mi Calm Calm - N/A   Overcast
1:55 AM 27.0 °F - 14.5 °F 60% 29.82 in 10.0 mi Calm Calm - N/A   Overcast
2:15 AM 26.6 °F - 13.6 °F 58% 29.82 in 10.0 mi Calm Calm - N/A   Overcast
2:35 AM 27.0 °F - 14.0 °F 58% 29.83 in 10.0 mi Calm Calm - N/A   Overcast
2:55 AM 26.8 °F - 13.8 °F 58% 29.83 in 10.0 mi Calm Calm - N/A   Overcast
3:15 AM 27.0 °F - 14.4 °F 59% 29.84 in 10.0 mi Calm Calm - N/A   Overcast
3:35 AM 25.2 °F - 14.7 °F 65% 29.83 in 10.0 mi Calm Calm - N/A   Overcast
3:55 AM 27.0 °F - 16.5 °F 65% 29.83 in 10.0 mi Calm Calm - N/A   Overcast
4:15 AM 26.8 °F - 16.2 °F 64% 29.84 in 10.0 mi Calm Calm - N/A   Overcast
4:35 AM 27.0 °F - 16.2 °F 64% 29.84 in 10.0 mi Calm Calm - N/A   Overcast
4:55 AM 27.0 °F - 17.1 °F 66% 29.85 in 4.0 mi Calm Calm - N/A Snow Light Snow
5:15 AM 24.6 °F - 16.2 °F 70% 29.85 in 5.0 mi Calm Calm - N/A Snow Light Snow
5:35 AM 24.6 °F - 18.3 °F 77% 29.86 in 2.0 mi Calm Calm - N/A Snow Light Snow
5:55 AM 24.6 °F 20.3 °F 19.4 °F 81% 29.86 in 4.0 mi North 3.5 mph - N/A Snow Light Snow
6:15 AM 23.7 °F - 19.4 °F 84% 29.87 in 5.0 mi Calm Calm - N/A Snow Light Snow
6:35 AM 23.0 °F 18.4 °F 19.6 °F 87% 29.87 in 1.8 mi North 3.5 mph - N/A Snow Light Snow
6:55 AM 23.0 °F - 19.9 °F 88% 29.88 in 2.0 mi Calm Calm - N/A Snow Light Snow
7:15 AM 22.5 °F - 19.6 °F 89% 29.90 in 1.2 mi Calm Calm - N/A Snow Snow
7:35 AM 22.1 °F - 19.8 °F 91% 29.91 in 1.0 mi Calm Calm - N/A Snow Light Snow
7:55 AM 22.1 °F - 19.8 °F 91% 29.92 in 0.8 mi Calm Calm - N/A Snow Light Snow
8:15 AM 22.1 °F - 19.9 °F 91% 29.94 in 1.0 mi Calm Calm - N/A Snow Light Snow
8:35 AM 23.0 °F 18.4 °F 20.5 °F 90% 29.95 in 1.8 mi NW 3.5 mph - N/A Snow Light Snow
8:55 AM 23.0 °F - 20.3 °F 89% 29.96 in 3.0 mi Calm Calm - N/A Snow Light Snow
9:15 AM 23.7 °F 19.3 °F 21.0 °F 89% 29.97 in 4.0 mi WNW 3.5 mph - N/A Snow Light Snow
9:35 AM 24.6 °F 20.3 °F 21.0 °F 86% 29.99 in 5.0 mi West 3.5 mph - N/A Snow Light Snow
9:55 AM 24.6 °F 18.8 °F 19.4 °F 81% 30.00 in 10.0 mi WNW 4.6 mph - N/A   Overcast
10:15 AM 24.6 °F 18.8 °F 18.1 °F 76% 30.02 in 10.0 mi WNW 4.6 mph - N/A   Overcast
10:35 AM 27.1 °F 20.7 °F 19.4 °F 73% 30.02 in 10.0 mi West 5.8 mph - N/A   Overcast
10:55 AM 26.6 °F 19.1 °F 18.1 °F 70% 30.03 in 10.0 mi West 6.9 mph - N/A   Mostly Cloudy
11:15 AM 27.1 °F 23.2 °F 16.3 °F 64% 30.04 in 10.0 mi WNW 3.5 mph - N/A   Scattered Clouds
11:35 AM 27.1 °F 19.7 °F 15.1 °F 60% 30.04 in 10.0 mi WNW 6.9 mph - N/A   Scattered Clouds
11:55 AM 28.4 °F 20.4 °F 16.0 °F 60% 30.04 in 10.0 mi West 8.1 mph - N/A   Clear
12:15 PM 28.6 °F 21.5 °F 15.8 °F 59% 30.05 in 10.0 mi WNW 6.9 mph - N/A   Clear
12:35 PM 29.7 °F 24.7 °F 16.2 °F 57% 30.05 in 10.0 mi WNW 4.6 mph - N/A   Clear
12:55 PM 29.7 °F 22.8 °F 15.4 °F 55% 30.05 in 10.0 mi West 6.9 mph - N/A   Clear
1:15 PM 29.7 °F 22.8 °F 14.2 °F 53% 30.06 in 10.0 mi West 6.9 mph - N/A   Clear
1:35 PM 29.7 °F 22.0 °F 12.9 °F 50% 30.06 in 10.0 mi West 8.1 mph - N/A   Clear
1:55 PM 29.7 °F 23.7 °F 13.1 °F 50% 30.07 in 10.0 mi West 5.8 mph - N/A   Clear
2:15 PM 29.7 °F 22.0 °F 12.7 °F 49% 30.07 in 10.0 mi West 8.1 mph - N/A   Clear
2:35 PM 29.7 °F 23.7 °F 12.4 °F 49% 30.08 in 10.0 mi WNW 5.8 mph - N/A   Clear
2:55 PM 29.7 °F 22.8 °F 12.0 °F 48% 30.09 in 10.0 mi West 6.9 mph 16.1 mph N/A   Clear
3:15 PM 29.7 °F 22.0 °F 13.1 °F 50% 30.10 in 10.0 mi West 8.1 mph - N/A   Clear
3:35 PM 29.3 °F 24.3 °F 13.1 °F 51% 30.11 in 10.0 mi West 4.6 mph - N/A   Clear
3:55 PM 27.5 °F - 12.4 °F 53% 30.11 in 10.0 mi Calm Calm - N/A   Clear
4:15 PM 27.1 °F 21.8 °F 12.7 °F 55% 30.12 in 10.0 mi West 4.6 mph - N/A   Clear
4:35 PM 27.1 °F 23.2 °F 12.9 °F 55% 30.12 in 10.0 mi NNW 3.5 mph - N/A   Clear
4:55 PM 26.8 °F 21.4 °F 13.5 °F 57% 30.14 in 10.0 mi West 4.6 mph - N/A   Clear
5:15 PM 24.6 °F 20.3 °F 12.2 °F 59% 30.15 in 10.0 mi WNW 3.5 mph - N/A   Clear
5:35 PM 24.6 °F 20.3 °F 12.6 °F 60% 30.15 in 10.0 mi NW 3.5 mph - N/A   Clear
5:55 PM 24.6 °F - 13.1 °F 62% 30.16 in 10.0 mi Calm Calm - N/A   Clear
6:15 PM 24.6 °F 20.3 °F 13.6 °F 63% 30.17 in 10.0 mi NW 3.5 mph - N/A   Clear
6:35 PM 24.6 °F - 13.5 °F 63% 30.18 in 10.0 mi Calm Calm - N/A   Clear
6:55 PM 24.6 °F 18.8 °F 13.1 °F 62% 30.19 in 10.0 mi WNW 4.6 mph - N/A   Clear
7:15 PM 24.6 °F - 13.6 °F 63% 30.19 in 10.0 mi Calm Calm - N/A   Clear
7:35 PM 23.7 °F - 12.9 °F 63% 30.19 in 10.0 mi Calm Calm - N/A   Clear
7:55 PM 19.8 °F - 10.9 °F 69% 30.20 in 10.0 mi Calm Calm - N/A   Clear
8:15 PM 19.4 °F - 12.4 °F 74% 30.20 in 10.0 mi Calm Calm - N/A   Clear
8:35 PM 17.1 °F - 11.3 °F 78% 30.21 in 10.0 mi Calm Calm - N/A   Clear
8:55 PM 15.4 °F 9.8 °F 11.3 °F 84% 30.21 in 10.0 mi SE 3.5 mph - N/A   Clear
9:15 PM 17.1 °F - 11.8 °F 80% 30.21 in 10.0 mi Calm Calm - N/A   Scattered Clouds
9:35 PM 14.9 °F 9.2 °F 10.8 °F 84% 30.21 in 10.0 mi ESE 3.5 mph - N/A   Scattered Clouds
9:55 PM 16.3 °F 10.8 °F 12.4 °F 84% 30.21 in 10.0 mi SE 3.5 mph - N/A   Mostly Cloudy
10:15 PM 17.1 °F - 13.1 °F 84% 30.21 in 10.0 mi Calm Calm - N/A   Overcast
10:35 PM 17.1 °F 11.7 °F 13.1 °F 84% 30.21 in 10.0 mi ESE 3.5 mph - N/A   Overcast
10:55 PM 17.1 °F 10.0 °F 13.1 °F 84% 30.22 in 10.0 mi SE 4.6 mph - N/A   Overcast
11:15 PM 16.9 °F 11.5 °F 12.9 °F 84% 30.23 in 10.0 mi ESE 3.5 mph - N/A   Overcast
11:35 PM 16.2 °F - 12.0 °F 84% 30.23 in 10.0 mi Calm Calm - N/A   Mostly Cloudy
11:55 PM 14.9 °F - 11.1 °F 85% 30.23 in 10.0 mi Calm Calm - N/A   Mostly Cloudy